Weather History for Jonesville, VA

Change the Weather History Date:

Tuesday, February 19, 2013

  Actual Average (KLOZ) Record (KLOZ)
Temperature  
Mean Temperature 40 °F 40 °F  
Max Temperature 48 °F 51 °F 72 °F (1994)
Min Temperature 32 °F 30 °F -2 °F (1958)
Degree Days  
Heating Degree Days 25 24  
Month to date heating degree days 503  
Since 1 July heating degree days 3066  
Cooling Degree Days 0 0  
Month to date cooling degree days 0  
Year to date cooling degree days 0  
Moisture  
Dew Point 27 °F    
Average Humidity 62    
Maximum Humidity 100    
Minimum Humidity 27    
Precipitation  
Precipitation 0.22 in 0.14 in 1.33 in (1991)
Month to date precipitation 2.48  
Year to date precipitation 6.02  
Sea Level Pressure  
Sea Level Pressure 29.99 in    
Wind  
Wind Speed 8 mph (WSW)    
Max Wind Speed 23 mph    
Max Gust Speed 36 mph    
Visibility 8 miles    
Events Rain    
T = Trace of Precipitation, MM = Missing Value Source: NWS Daily Summary

Daily Weather History Graph

Daily Weather History Graph

Search for Another Location

Airport:

Trip Planner

Search our weather history database for the weather conditions in past years. The results will help you decide how hot, cold, wet, or windy it might be!

Date:

Astronomy

Feb. 19, 2013 Rise Set
Actual Time 7:16 AM EST 6:17 PM EST
Civil Twilight 6:49 AM EST 6:44 PM EST
Nautical Twilight 6:19 AM EST 7:14 PM EST
Astronomical Twilight 5:49 AM EST 7:44 PM EST
Moon 12:53 PM EST (2/19) 2:42 AM EST (2/19)
Length of Visible Light 11h 54m
Length of Day
11h 01m
Waxing Gibbous, 67% of the Moon is Illuminated
Feb 19
Waxing Gibbous
Feb 25
Full
Mar 4
Last Quarter
Mar 11
New
Mar 19
First Quarter

Hourly Weather History & Observations

Time (EST) Temp. Windchill Dew Point Humidity Pressure Visibility Wind Dir Wind Speed Gust Speed Precip Events Conditions
12:15 AM 46.4 °F 43.5 °F 23.0 °F 40% 30.00 in 10.0 mi SSE 5.8 mph - N/A   Partly Cloudy
12:35 AM 46.4 °F 44.3 °F 23.0 °F 40% 29.99 in 10.0 mi SSE 4.6 mph - N/A   Mostly Cloudy
12:55 AM 46.4 °F 45.2 °F 23.0 °F 40% 29.97 in 10.0 mi SE 3.5 mph - N/A   Overcast
1:15 AM 46.4 °F 44.3 °F 23.0 °F 40% 29.96 in 10.0 mi SSE 4.6 mph - N/A   Overcast
1:35 AM 46.4 °F 43.5 °F 23.0 °F 40% 29.96 in 10.0 mi SSE 5.8 mph - N/A   Overcast
1:55 AM 46.4 °F 45.2 °F 23.0 °F 40% 29.96 in 10.0 mi SSE 3.5 mph - N/A   Overcast
2:15 AM 46.4 °F - 24.8 °F 43% 29.99 in 10.0 mi Calm Calm - N/A   Overcast
2:35 AM 44.6 °F 37.8 °F 30.2 °F 57% 29.99 in 8.0 mi SSW 15.0 mph 28.8 mph N/A Rain Light Rain
2:55 AM 42.8 °F 37.0 °F 35.6 °F 76% 30.00 in 5.0 mi SW 10.4 mph 17.3 mph 0.01 in Rain Light Rain
3:15 AM 41.0 °F 34.3 °F 35.6 °F 81% 30.01 in 4.0 mi SW 11.5 mph - 0.02 in Rain Light Rain
3:35 AM 39.2 °F 32.5 °F 35.6 °F 87% 30.01 in 3.0 mi SW 10.4 mph 17.3 mph 0.07 in Rain Rain
3:55 AM 39.2 °F 33.0 °F 35.6 °F 87% 30.01 in 5.0 mi SW 9.2 mph - 0.10 in Rain Light Rain
4:15 AM 37.4 °F 32.1 °F 35.6 °F 93% 30.00 in 5.0 mi SW 6.9 mph - 0.01 in Rain Light Rain
4:35 AM 37.4 °F 32.8 °F 35.6 °F 93% 29.99 in 5.0 mi SSW 5.8 mph - 0.03 in Rain Light Rain
4:55 AM 37.4 °F 32.8 °F 35.6 °F 93% 29.99 in 5.0 mi SW 5.8 mph - 0.05 in Rain Light Rain
5:15 AM 37.4 °F 34.9 °F 35.6 °F 93% 29.99 in 4.0 mi WSW 3.5 mph - N/A Rain Light Rain
5:35 AM 37.4 °F - 35.6 °F 93% 29.98 in 4.0 mi Calm Calm - 0.02 in Rain Light Rain
5:55 AM 37.4 °F - 35.6 °F 93% 29.97 in 8.0 mi Calm Calm - 0.03 in Rain Light Rain
6:15 AM 37.4 °F - 37.4 °F 100% 29.96 in 8.0 mi Calm Calm - N/A Rain Light Rain
7:15 AM 37.4 °F - 37.4 °F 100% 29.94 in 5.0 mi Calm Calm - N/A Rain Light Rain
7:35 AM 37.4 °F - 37.4 °F 100% 29.94 in 3.0 mi Calm Calm - 0.01 in Rain Light Rain
7:55 AM 37.4 °F - 37.4 °F 100% 29.94 in 1.5 mi Calm Calm - 0.02 in Rain Light Rain
8:15 AM 37.4 °F - 37.4 °F 100% 29.94 in 2.0 mi Calm Calm - N/A Rain Light Rain
8:35 AM 37.4 °F - 37.4 °F 100% 29.94 in 2.5 mi Calm Calm - N/A   Overcast
8:55 AM 37.4 °F - 37.4 °F 100% 29.95 in 3.0 mi Calm Calm - 0.01 in Rain Light Rain
9:15 AM 37.4 °F - 37.4 °F 100% 29.95 in 2.0 mi Calm Calm - N/A   Mostly Cloudy
9:35 AM 37.4 °F 33.8 °F 37.4 °F 100% 29.95 in 4.0 mi WSW 4.6 mph - N/A   Overcast
9:55 AM 39.2 °F 32.5 °F 39.2 °F 100% 29.95 in 8.0 mi SW 10.4 mph - N/A   Overcast
10:15 AM 41.0 °F 33.9 °F 39.2 °F 93% 29.94 in 5.0 mi WSW 12.7 mph 16.1 mph N/A Rain Light Rain
10:35 AM 41.0 °F 33.9 °F 39.2 °F 93% 29.95 in 5.0 mi SW 12.7 mph - N/A Rain Light Rain
10:55 AM 41.0 °F 34.3 °F 39.2 °F 93% 29.96 in 5.0 mi SW 11.5 mph - N/A Rain Light Rain
11:15 AM 41.0 °F 33.5 °F 41.0 °F 100% 29.96 in 10.0 mi WSW 13.8 mph - N/A   Mostly Cloudy
11:35 AM 42.8 °F 36.6 °F 41.0 °F 93% 29.96 in 10.0 mi WSW 11.5 mph 16.1 mph N/A   Mostly Cloudy
11:55 AM 46.4 °F 39.2 °F 37.4 °F 71% 29.96 in 10.0 mi WSW 18.4 mph 27.6 mph N/A   Scattered Clouds
12:15 PM 44.6 °F 36.6 °F 32.0 °F 61% 29.96 in 10.0 mi West 19.6 mph 25.3 mph N/A   Partly Cloudy
12:35 PM 46.4 °F 40.4 °F 32.0 °F 57% 29.96 in 10.0 mi West 13.8 mph 20.7 mph N/A   Partly Cloudy
12:55 PM 44.6 °F 37.8 °F 28.4 °F 53% 29.95 in 10.0 mi WSW 15.0 mph - N/A   Clear
1:15 PM 44.6 °F 37.8 °F 30.2 °F 57% 29.94 in 10.0 mi WSW 15.0 mph 23.0 mph N/A   Clear
1:35 PM 46.4 °F 39.2 °F 28.4 °F 50% 29.94 in 10.0 mi SW 18.4 mph 26.5 mph N/A   Clear
1:55 PM 46.4 °F 39.2 °F 26.6 °F 46% 29.93 in 10.0 mi WSW 18.4 mph - N/A   Partly Cloudy
2:15 PM 48.2 °F - 26.6 °F 43% 29.93 in 10.0 mi WSW 21.9 mph 28.8 mph N/A   Partly Cloudy
2:35 PM 48.2 °F - 24.8 °F 40% 29.93 in 10.0 mi WSW 17.3 mph 27.6 mph N/A   Partly Cloudy
2:55 PM 46.4 °F 39.5 °F 19.4 °F 34% 29.93 in 10.0 mi WSW 17.3 mph 26.5 mph N/A   Clear
3:15 PM 48.2 °F - 19.4 °F 32% 29.94 in 10.0 mi West 23.0 mph 29.9 mph N/A   Clear
3:35 PM 48.2 °F - 17.6 °F 30% 29.94 in 10.0 mi West 15.0 mph 23.0 mph N/A   Partly Cloudy
3:55 PM 48.2 °F - 15.8 °F 27% 29.95 in 10.0 mi West 17.3 mph 35.7 mph N/A   Clear
4:15 PM 48.2 °F - 15.8 °F 27% 29.96 in 10.0 mi West 15.0 mph 32.2 mph N/A   Clear
4:35 PM 46.4 °F 39.2 °F 15.8 °F 29% 29.97 in 10.0 mi WNW 18.4 mph 27.6 mph N/A   Partly Cloudy
4:55 PM 46.4 °F 39.5 °F 14.0 °F 27% 29.98 in 10.0 mi West 17.3 mph 28.8 mph N/A   Clear
5:15 PM 46.4 °F 41.5 °F 15.8 °F 29% 29.99 in 10.0 mi West 10.4 mph 24.2 mph N/A   Clear
5:35 PM 44.6 °F 38.4 °F 17.6 °F 34% 30.00 in 10.0 mi WNW 12.7 mph 18.4 mph N/A   Clear
5:55 PM 42.8 °F 37.5 °F 17.6 °F 36% 30.01 in 10.0 mi WNW 9.2 mph 16.1 mph N/A   Clear
6:15 PM 41.0 °F 34.7 °F 15.8 °F 36% 30.03 in 10.0 mi WNW 10.4 mph - N/A   Clear
7:35 PM 37.4 °F 28.9 °F 15.8 °F 41% 30.07 in 10.0 mi WNW 13.8 mph 21.9 mph N/A   Clear
7:55 PM 37.4 °F 30.8 °F 15.8 °F 41% 30.08 in 10.0 mi WNW 9.2 mph - N/A   Clear
8:15 PM 37.4 °F 30.3 °F 15.8 °F 41% 30.08 in 10.0 mi West 10.4 mph - N/A   Clear
8:35 PM 37.4 °F 29.8 °F 17.6 °F 45% 30.09 in 10.0 mi West 11.5 mph 16.1 mph N/A   Clear
8:55 PM 37.4 °F 29.8 °F 15.8 °F 41% 30.09 in 10.0 mi West 11.5 mph 18.4 mph N/A   Clear
9:15 PM 35.6 °F 29.2 °F 15.8 °F 44% 30.10 in 10.0 mi West 8.1 mph - N/A   Clear
9:35 PM 35.6 °F 28.0 °F 15.8 °F 44% 30.10 in 10.0 mi West 10.4 mph - N/A   Clear
9:55 PM 35.6 °F 29.2 °F 15.8 °F 44% 30.10 in 10.0 mi West 8.1 mph - N/A   Clear
10:15 PM 35.6 °F 27.5 °F 15.8 °F 44% 30.11 in 10.0 mi WSW 11.5 mph - N/A   Clear
10:35 PM 33.8 °F 27.7 °F 15.8 °F 48% 30.11 in 10.0 mi WSW 6.9 mph - N/A   Clear
10:55 PM 33.8 °F 27.7 °F 15.8 °F 48% 30.12 in 10.0 mi WSW 6.9 mph - N/A   Clear
11:15 PM 32.0 °F 24.8 °F 15.8 °F 51% 30.12 in 10.0 mi WSW 8.1 mph - N/A   Clear
11:35 PM 32.0 °F 25.6 °F 15.8 °F 51% 30.12 in 10.0 mi WSW 6.9 mph - N/A   Clear
11:55 PM 32.0 °F 26.4 °F 15.8 °F 51% 30.14 in 10.0 mi WSW 5.8 mph - N/A   Clear